Regional Weather Roundup
Issued by NWS

Home | Current Version | Previous Version | Graphics & Text | Print | Product List | Glossary On
Versions: 1 2 3 4 5 6 7 8 9 10 11 12 13 14 15 16 17 18 19 20 21 22 23 24 25 26 27 28 29 30 31 32 33 34 35 36 37 38 39 40 41 42 43 44 45 46 47 48 49 50
000
ASUS43 KMPX 080401
RWRMN
WEATHER ROUNDUP FOR MINNESOTA
NATIONAL WEATHER SERVICE TWIN CITIES/CHANHASSEN MN
1000 PM CST SUN FEB 07 2016


NOTE: "FAIR" INDICATES FEW OR NO CLOUDS BELOW 12,000 FEET WITH NO
SIGNIFICANT WEATHER AND/OR OBSTRUCTIONS TO VISIBILITY. N/A MEANS
CURRENT SKY AND/OR WEATHER CONDITIONS ARE NOT AVAILABLE.

MNZ060>063-068>070-080500-
   Twin Cities Metro

CITY           SKY/WX    TMP DP  RH WIND       PRES   REMARKS
TWIN CITIES    LGT SNOW  18  10  71 NW28G37   29.76R WCI  -1
ST PAUL        LGT SNOW  19  12  74 NW21G29   29.77R WCI   3
CRYSTAL        CLOUDY    18   9  68 NW22G28   29.76R WCI   1
BLAINE         CLOUDY    19  12  73 NW18G24   29.74S WCI   4
LAKEVILLE      LGT SNOW  18  14  86 NW20G29   29.75R WCI   1
EDEN PRAIRIE   LGT SNOW  19  11  70 NW22G29   29.75S WCI   2
SOUTH ST PAUL  FLURRIES  20  13  74 NW18      29.75S WCI   5
LAKE ELMO      FLURRIES  21  14  73 NW17      29.75R WCI   7
$$
MNZ001>005-007-008-013>017-022>024-027-028-080500-
   Northwest Minnesota

CITY           SKY/WX    TMP DP  RH WIND       PRES   REMARKS
BEMIDJI        CLOUDY     7   2  80 NW17      29.84R WCI -11
HALLOCK        LGT SNOW  10   7  85 N25G36    30.02R WCI -10
ROSEAU         LGT SNOW   7   0  72 NW17G29   29.95R WCI -12
WARROAD        LGT SNOW   5   0  78 NW21G26   29.92R WCI -16
CROOKSTON      HVY SNOW  10   7  85 N29G39    30.01R VSB 1/4 WCI -11
FOSSTON        LGT SNOW   7   3  85 NW18      29.92R VSB 1   WCI -12
DETROIT LAKES  LGT SNOW  10   9  92 NW28G37   29.91R WCI -11
MOORHEAD       MIX PCPN  12  10  92 N30G39    30.01R VSB 1/2 WCI  -9
PARK RAPIDS    FLURRIES  10   3  73 NW18      29.82R WCI  -8
MAHNOMEN       LGT SNOW   8   5  85 NW22G28   29.92R WCI -12
$$
MNZ006-009>011-018-025>026-080500-
   North Central Minnesota

CITY           SKY/WX    TMP DP  RH WIND       PRES   REMARKS
BAUDETTE       CLOUDY     6   0  76 NW22      29.85R HAZE    WCI -15
FLAG ISLAND    LGT SNOW   5   1  85 NW23      29.88R WCI -17
INTL FALLS     LGT SNOW  11   6  81 NW14      29.77R WCI  -5
WASKISH        LGT SNOW   9   3  78 NW13G18   29.85R WCI  -7
LONGVILLE      FLURRIES  10   5  79 NW10G21   29.78R WCI  -3
GRAND RAPIDS   CLOUDY    10   3  72 NW24G33   29.72R WCI -10
CRANE LAKE     CLOUDY    18  16  93 N10G18    29.72R WCI   6
ORR            FLURRIES  18  12  79 NW10G23   29.68R WCI   6
COOK           LGT SNOW  18  16  93 NW9G17    29.69R WCI   6
WALKER         LGT SNOW   8   3  78 NW17G25   29.81R WCI -10
$$
MNZ012-019>021-037-080500-
   Northeast Minnesota

CITY           SKY/WX    TMP DP  RH WIND       PRES   REMARKS
DULUTH         LGT SNOW  20  15  81 NW18G26   29.61R BLWGSNOWWCI   5
ELY            LGT SNOW  25  23  93 N9        29.61R WCI  15
HIBBING        LGT SNOW  13  10  88 NW17      29.67R FOG     WCI  -4
EVELETH        MIX PCPN  21  18  86 NW14G21   29.65R WCI   8
DULUTH HARBOR  LGT SNOW  25  19  80 NW20G26   29.66R WCI  11
TWO HARBORS    CLOUDY    28  21  74 NW7       29.58R WCI  21
SILVER BAY     CLOUDY    30  25  80 CALM      29.57R
GRAND MARAIS     N/A     23  17  78 VRB6      29.60R WCI  16
G MARAIS ARPRT LGT SNOW  16  10  79 N14G20    29.54R WCI   1
$$
MNZ029>031-032-039>041-046>048-054>057-064-080500-
   West Central Minnesota

CITY           SKY/WX    TMP DP  RH WIND       PRES   REMARKS
FERGUS FALLS   LGT SNOW  12   9  85 N29G43    29.96R VSB 1   WCI  -9
WHEATON        LGT SNOW  18  16  93 N20G28    29.99R WCI   1
MORRIS         LGT SNOW  16  10  79 NW32G44   29.90S WCI  -5
ALEXANDRIA     LGT SNOW  12   6  77 NW26G39   29.84S WCI  -8
ELBOW LAKE     LGT SNOW  13   9  83 W28G41    29.91S WCI  -7
WADENA         LGT SNOW   9   3  78 NW18G31   29.84R WCI -10
GLENWOOD       LGT SNOW  12   9  85 NW23G31   29.85R WCI  -7
APPLETON       LGT SNOW  18  14  86 N25G32    29.93R WCI  -1
BENSON         LGT SNOW  16  10  79 N23G33    29.90R WCI  -2
ORTONVILLE     LGT SNOW  19  14  79 NW18G30   29.94S WCI   4
MADISON        MOCLDY    21  16  79 N31G43    29.94S WCI   3
WILLMAR        LGT SNOW  18  12  79 NW37G45   29.86S WCI  -4
$$
MNZ033>034-036-042>043-049>051-058-059-080500-
   Central Minnesota

CITY           SKY/WX    TMP DP  RH WIND       PRES   REMARKS
ST CLOUD       FLURRIES  14   7  73 NW23G32   29.78R WCI  -5
SAUK CENTRE    LGT SNOW  12   7  81 NW28G35   29.82S WCI  -9
PAYNESVILLE    LGT SNOW  14   8  79 NW22G38   29.83R WCI  -5
AITKIN         MIX PCPN  16   5  62 NW12G21   29.74R WCI   3
PINE RIVER     FLURRIES  12   7  79 NW13G22   29.82R WCI  -3
BRAINERD       MIX PCPN  13   6  74 NW22      29.77R WCI  -6
STAPLES        LGT SNOW   9   3  78 NW22G29   29.81R WCI -11
LONG PRAIRIE   LGT SNOW  12   5  73 NW23G36   29.81S WCI  -7
LITTLE FALLS   FLURRIES  14   7  73 NW10G18   29.80R WCI   1
LITCHFIELD     LGT SNOW  16  12  86 NW23G35   29.82R WCI  -2
BUFFALO        CLOUDY    17   9  71 NW21G26   29.80R WCI   0
MAPLE LAKE     CLOUDY    17  10  74 NW14G25   29.80R WCI   3
$$
MNZ037-044-045-052-053-080500-
   East Central Minnesota

CITY           SKY/WX    TMP DP  RH WIND       PRES   REMARKS
PRINCETON      CLOUDY    18  10  73 W17G24    29.76S WCI   2
MORA           FLURRIES  18  10  73 NW17G26   29.75R WCI   2
CAMBRIDGE      FLURRIES  19   9  63 NW9       29.73S WCI   9
RUSH CITY      CLOUDY    18  11  73 NW14G23   29.73R WCI   5
MOOSE LAKE     FLURRIES  19  12  73 NW14      29.68R WCI   6
HINCKLEY       FLURRIES  19  12  73 NW14G21   29.71R WCI   6
CLOQUET        LGT SNOW  19  14  79 W14G21    29.65R WCI   6
MCGREGOR       CLOUDY    16  10  79 NW16G23   29.72R WCI   0
$$
MNZ071>073-080-081-089-090-097-098-080500-
   Southwest Minnesota

CITY           SKY/WX    TMP DP  RH WIND       PRES   REMARKS
MONTEVIDEO     LGT SNOW  18  16  93 N24G33    29.93R WCI   0
GRANITE FALLS  LGT SNOW  21  17  86 NW18G29   29.92R WCI   6
CANBY          LGT SNOW  24  19  83 W24G30    29.95S WCI   8
MARSHALL       LGT SNOW  20  14  77 N32G44    29.89R WCI   1
REDWOOD FALLS  FLURRIES  19  12  74 NW22G38   29.87S WCI   2
OLIVIA         MOCLDY    21  14  73 NW33G48   29.85S HAZE    WCI   2
PIPESTONE      CLOUDY    23  10  58 N18G33    29.91S WCI   9
WINDOM         LGT SNOW  21  19  93 NW24G30   29.85S WCI   4
WORTHINGTON    CLOUDY   N/A N/A N/A NW36G44   29.88S
JACKSON          N/A     23  19  86 NW30G36   29.85S WCI   5
TRACY          SNOW      20  18  91 N20G31    29.89R VSB 1/2 WCI   5
SLAYTON        LGT SNOW  19  18  96 NW29      29.89R WCI   1
$$
MNZ065>067-074>077-082>085-091>093-080500-
   South Central Minnesota

CITY           SKY/WX    TMP DP  RH WIND       PRES   REMARKS
MANKATO        CLOUDY   N/A N/A N/A NW22G31   29.79S
NEW ULM        LGT SNOW  19  14  79 NW26G38   29.83R WCI   1
ST JAMES       LGT SNOW  21  19  93 NW30G36   29.86S WCI   3
FAIRMONT       CLOUDY    21  16  79 NW23G33   29.82S WCI   5
GLENCOE        LGT SNOW  18  13  82 NW23G32   29.80S WCI   0
FARIBAULT      LGT SNOW  19  18  93 W18G26    29.77R WCI   4
OWATONNA       SNOW      19  16  86 NW33G39   29.76R VSB 1/2 WCI   0
WASECA         LGT SNOW  21  18  86 W29G35    29.79R WCI   3
ALBERT LEA     MOCLDY    21  16  79 NW17G30   29.76S WCI   7
$$
MNZ078>079-086>088-094>096-080500-
   Southeast Minnesota

CITY           SKY/WX    TMP DP  RH WIND       PRES   REMARKS
ROCHESTER      MIX PCPN  23  17  78 NW23G33   29.70R WCI   7
RED WING       LGT SNOW  21  16  79 NW14G23   29.73R WCI   8
STANTON        LGT SNOW  22  15  75 NW26      29.74R WCI   5
DODGE CENTER   LGT SNOW  21  19  93 NW23G30   29.72R VSB 3/4 WCI   5
WINONA         CLOUDY    30  21  69 W20G30    29.70R WCI  18
AUSTIN         PTCLDY    25  19  80 NW22G30   29.73S WCI  10
PRESTON        CLOUDY    25  17  74 NW21G29   29.69R WCI  10
$$
ABBREVIATIONS USED IN REMARKS
   TC - TEMPERATURES IN CELSIUS
  WCI - WIND CHILL INDEX
   HX - HEAT INDEX
  VSB - VISIBILITY
$$



USA.gov is the U.S. government's official web portal to all federal, state and local government web resources and services.